Change the Weather History Date:

Thursday, March 21, 2013

  Actual Average Record
Temperature  
Mean Temperature 22 °F -  
Max Temperature 26 °F 38 °F 82 °F (2012)
Min Temperature 19 °F 16 °F -10 °F (1985)
Degree Days  
Heating Degree Days 42    
Moisture  
Dew Point 19 °F    
Average Humidity 84    
Maximum Humidity 100    
Minimum Humidity 69    
Precipitation  
Precipitation 0.00 in - - ()
Sea Level Pressure  
Sea Level Pressure 29.81 in    
Wind  
Wind Speed 13 mph (NW)    
Max Wind Speed 22 mph    
Max Gust Speed 28 mph    
Visibility 10 miles    
Events      
Averages and records for this station are not official NWS values.
T = Trace of Precipitation, MM = Missing Value Source: NWS Daily Summary

Daily Weather History Graph

Daily Weather History Graph

Search for Another Location

Airport or City:

Trip Planner

Search our weather history database for the weather conditions in past years. The results will help you decide how hot, cold, wet, or windy it might be!

Date:

Astronomy

Mar. 21, 2013 Rise Set
Actual Time 7:38 AM EDT 7:52 PM EDT
Civil Twilight 7:08 AM EDT 8:22 PM EDT
Nautical Twilight 6:33 AM EDT 8:57 PM EDT
Astronomical Twilight 5:57 AM EDT 9:34 PM EDT
Moon 2:05 PM EDT (3/21) 4:16 AM EDT (3/21)
Length of Visible Light 13h 13m
Length of Day
12h 13m
Waxing Gibbous, 68% of the Moon is Illuminated
Mar 21
Waxing Gibbous
Mar 27
Full
Apr 3
Last Quarter
Apr 10
New
Apr 18
First Quarter

Hourly Weather History & Observations

Time (EDT) Temp. Windchill Dew Point Humidity Pressure Visibility Wind Dir Wind Speed Gust Speed Precip Events Conditions
12:15 AM 24.8 °F 14.0 °F 23.0 °F 93% 29.76 in 8.0 mi NNW 11.5 mph - N/A   Mostly Cloudy
12:35 AM 24.8 °F 12.9 °F 23.0 °F 93% 29.75 in 7.0 mi NNW 13.8 mph - N/A   Overcast
12:55 AM 24.8 °F 13.4 °F 24.8 °F 100% 29.75 in 10.0 mi NW 12.7 mph - N/A   Overcast
1:15 AM 24.8 °F 13.4 °F 24.8 °F 100% 29.76 in 5.0 mi NW 12.7 mph 18.4 mph N/A   Mostly Cloudy
1:35 AM 24.8 °F 12.9 °F 23.0 °F 93% 29.76 in 5.0 mi NW 13.8 mph - N/A   Overcast
1:55 AM 24.8 °F 12.9 °F 24.8 °F 100% 29.76 in 5.0 mi NW 13.8 mph - N/A   Overcast
2:15 AM 24.8 °F 12.9 °F 24.8 °F 100% 29.76 in 8.0 mi NW 13.8 mph - N/A   Overcast
2:35 AM 24.8 °F 13.4 °F 23.0 °F 93% 29.76 in 10.0 mi NNW 12.7 mph - N/A   Overcast
2:55 AM 24.8 °F 13.4 °F 21.2 °F 86% 29.76 in 10.0 mi NNW 12.7 mph - N/A   Overcast
3:15 AM 23.0 °F 10.6 °F 19.4 °F 86% 29.77 in 10.0 mi NNW 13.8 mph 20.7 mph N/A   Mostly Cloudy
3:35 AM 23.0 °F 11.1 °F 19.4 °F 86% 29.77 in 10.0 mi NNW 12.7 mph - N/A   Partly Cloudy
3:55 AM 21.2 °F 10.9 °F 19.4 °F 93% 29.78 in 10.0 mi NNW 9.2 mph - N/A   Clear
4:15 AM 21.2 °F 9.5 °F 21.2 °F 100% 29.77 in 10.0 mi NW 11.5 mph - N/A   Scattered Clouds
4:35 AM 21.2 °F 10.9 °F 21.2 °F 100% 29.77 in 10.0 mi NW 9.2 mph - N/A   Scattered Clouds
4:55 AM 21.2 °F 10.9 °F 19.4 °F 93% 29.78 in 10.0 mi NW 9.2 mph - N/A   Clear
5:15 AM 21.2 °F 13.6 °F 19.4 °F 93% 29.77 in 10.0 mi NW 5.8 mph - N/A   Clear
5:35 AM 19.4 °F 7.9 °F 17.6 °F 93% 29.77 in 10.0 mi NW 10.4 mph - N/A   Scattered Clouds
5:55 AM 21.2 °F 10.9 °F 17.6 °F 86% 29.77 in 10.0 mi NW 9.2 mph - N/A   Mostly Cloudy
6:15 AM 21.2 °F 10.1 °F 17.6 °F 86% 29.78 in 10.0 mi NNW 10.4 mph - N/A   Overcast
6:35 AM 21.2 °F 9.5 °F 17.6 °F 86% 29.79 in 10.0 mi NNW 11.5 mph - N/A   Overcast
6:55 AM 21.2 °F 10.1 °F 17.6 °F 86% 29.79 in 10.0 mi NNW 10.4 mph - N/A   Overcast
7:15 AM 19.4 °F 7.9 °F 17.6 °F 93% 29.79 in 10.0 mi NNW 10.4 mph - N/A   Overcast
7:35 AM 19.4 °F 6.6 °F 17.6 °F 93% 29.79 in 10.0 mi NNW 12.7 mph 18.4 mph N/A   Overcast
7:55 AM 19.4 °F 9.5 °F 17.6 °F 93% 29.80 in 10.0 mi NNW 8.1 mph - N/A   Overcast
8:15 AM 21.2 °F 12.6 °F 17.6 °F 86% 29.80 in 10.0 mi NNW 6.9 mph - N/A   Overcast
8:35 AM 21.2 °F 11.7 °F 17.6 °F 86% 29.80 in 10.0 mi NW 8.1 mph - N/A   Overcast
8:55 AM 21.2 °F 11.7 °F 17.6 °F 86% 29.81 in 10.0 mi WNW 8.1 mph - N/A   Overcast
9:15 AM 21.2 °F 10.9 °F 19.4 °F 93% 29.81 in 9.0 mi NW 9.2 mph - N/A   Overcast
9:35 AM 21.2 °F 8.9 °F 19.4 °F 93% 29.81 in 8.0 mi NNW 12.7 mph - N/A   Overcast
9:55 AM 23.0 °F 9.6 °F 17.6 °F 80% 29.81 in 8.0 mi NNW 16.1 mph 19.6 mph N/A   Overcast
10:15 AM 21.2 °F 9.5 °F 17.6 °F 86% 29.81 in 10.0 mi NW 11.5 mph - N/A   Overcast
10:35 AM 23.0 °F 8.7 °F 15.8 °F 74% 29.80 in 10.0 mi NW 18.4 mph - N/A   Overcast
10:55 AM 24.8 °F 11.5 °F 15.8 °F 69% 29.81 in 10.0 mi NNW 17.3 mph 23.0 mph N/A   Overcast
11:15 AM 23.0 °F 8.7 °F 15.8 °F 74% 29.81 in 10.0 mi NNW 18.4 mph 23.0 mph N/A   Overcast
11:35 AM 24.8 °F 11.9 °F 15.8 °F 69% 29.81 in 10.0 mi NNW 16.1 mph 23.0 mph N/A   Scattered Clouds
11:55 AM 24.8 °F 12.4 °F 17.6 °F 74% 29.82 in 10.0 mi NNW 15.0 mph 21.9 mph N/A   Scattered Clouds
12:15 PM 24.8 °F 11.1 °F 15.8 °F 69% 29.81 in 10.0 mi NW 18.4 mph 23.0 mph N/A   Mostly Cloudy
12:35 PM 24.8 °F 11.5 °F 17.6 °F 74% 29.81 in 10.0 mi NNW 17.3 mph 23.0 mph N/A   Mostly Cloudy
12:55 PM 26.6 °F 13.4 °F 17.6 °F 69% 29.80 in 10.0 mi NW 18.4 mph 24.2 mph N/A   Mostly Cloudy
1:15 PM 24.8 °F 10.0 °F 17.6 °F 74% 29.81 in 10.0 mi WNW 21.9 mph - N/A   Overcast
1:35 PM 24.8 °F 11.5 °F 17.6 °F 74% 29.82 in 10.0 mi NW 17.3 mph 21.9 mph N/A   Overcast
1:55 PM 24.8 °F 11.5 °F 17.6 °F 74% 29.82 in 9.0 mi WNW 17.3 mph 23.0 mph N/A   Overcast
2:15 PM 24.8 °F 10.7 °F 19.4 °F 80% 29.82 in 8.0 mi NW 19.6 mph 24.2 mph N/A   Overcast
2:35 PM 24.8 °F 10.7 °F 17.6 °F 74% 29.82 in 10.0 mi NW 19.6 mph 25.3 mph N/A   Overcast
2:55 PM 24.8 °F 12.9 °F 17.6 °F 74% 29.82 in 10.0 mi WNW 13.8 mph 25.3 mph N/A   Overcast
3:15 PM 24.8 °F 11.5 °F 19.4 °F 80% 29.82 in 10.0 mi NW 17.3 mph 21.9 mph N/A   Overcast
3:35 PM 24.8 °F 11.9 °F 17.6 °F 74% 29.82 in 10.0 mi WNW 16.1 mph 24.2 mph N/A   Overcast
3:55 PM 24.8 °F 10.7 °F 17.6 °F 74% 29.82 in 10.0 mi NW 19.6 mph 27.6 mph N/A   Overcast
4:15 PM 24.8 °F 11.5 °F 17.6 °F 74% 29.82 in 10.0 mi WNW 17.3 mph 25.3 mph N/A   Overcast
4:35 PM 24.8 °F 12.4 °F 17.6 °F 74% 29.83 in 10.0 mi NW 15.0 mph 20.7 mph N/A   Overcast
4:55 PM 24.8 °F 11.1 °F 17.6 °F 74% 29.83 in 10.0 mi NW 18.4 mph 21.9 mph N/A   Overcast
5:15 PM 24.8 °F 11.1 °F 17.6 °F 74% 29.83 in 10.0 mi NW 18.4 mph 25.3 mph N/A   Overcast
5:35 PM 24.8 °F 10.7 °F 17.6 °F 74% 29.83 in 10.0 mi NW 19.6 mph 24.2 mph N/A   Overcast
5:55 PM 24.8 °F 11.9 °F 17.6 °F 74% 29.84 in 10.0 mi NW 16.1 mph 23.0 mph N/A   Overcast
6:15 PM 24.8 °F 12.9 °F 17.6 °F 74% 29.84 in 10.0 mi NW 13.8 mph 24.2 mph N/A   Overcast
6:35 PM 24.8 °F 11.1 °F 17.6 °F 74% 29.84 in 10.0 mi NW 18.4 mph 25.3 mph N/A   Overcast
6:55 PM 23.0 °F 8.0 °F 17.6 °F 80% 29.84 in 10.0 mi NW 20.7 mph 24.2 mph N/A   Overcast
7:15 PM 23.0 °F 9.2 °F 17.6 °F 80% 29.84 in 10.0 mi WNW 17.3 mph - N/A   Overcast
7:35 PM 23.0 °F 9.2 °F 17.6 °F 80% 29.84 in 10.0 mi NW 17.3 mph 24.2 mph N/A   Overcast
7:55 PM 21.2 °F 8.3 °F 17.6 °F 86% 29.85 in 10.0 mi WNW 13.8 mph - N/A   Overcast
8:15 PM 21.2 °F 7.3 °F 17.6 °F 86% 29.85 in 10.0 mi WNW 16.1 mph 21.9 mph N/A   Mostly Cloudy
8:35 PM 21.2 °F 7.8 °F 17.6 °F 86% 29.86 in 10.0 mi WNW 15.0 mph - N/A   Overcast
8:55 PM 21.2 °F 7.3 °F 17.6 °F 86% 29.86 in 10.0 mi WNW 16.1 mph - N/A   Overcast
9:15 PM 21.2 °F 8.9 °F 17.6 °F 86% 29.86 in 10.0 mi WNW 12.7 mph - N/A   Mostly Cloudy
9:35 PM 21.2 °F 8.3 °F 19.4 °F 93% 29.86 in 10.0 mi WNW 13.8 mph - N/A   Mostly Cloudy
9:55 PM 21.2 °F 9.5 °F 17.6 °F 86% 29.86 in 10.0 mi West 11.5 mph - N/A   Overcast
10:15 PM 21.2 °F 10.1 °F 17.6 °F 86% 29.86 in 10.0 mi WNW 10.4 mph - N/A   Overcast
10:35 PM 21.2 °F 10.1 °F 19.4 °F 93% 29.85 in 10.0 mi WNW 10.4 mph - N/A   Mostly Cloudy
10:55 PM 21.2 °F 10.1 °F 19.4 °F 93% 29.85 in 10.0 mi WNW 10.4 mph - N/A   Overcast
11:15 PM 21.2 °F 10.9 °F 19.4 °F 93% 29.85 in 10.0 mi West 9.2 mph - N/A   Overcast
11:35 PM 23.0 °F 13.1 °F 19.4 °F 86% 29.85 in 10.0 mi West 9.2 mph - N/A   Overcast
11:55 PM 24.8 °F 14.0 °F 21.2 °F 86% 29.84 in 10.0 mi West 11.5 mph - N/A   Overcast